Location: Allisons_Woods
(35.8920°N, 81.8170°W)
Time: 06:21:34
(UTC-04:00)

Daily predictions for brighter satellites

Satellite Brightness Start Highest point End
(mag) Time Altitude Azimuth Time Altitude Azimuth Time Altitude Azimuth
ATLAS CENTAUR R/B 3.3 19:24:21 10° SW 19:28:28 84° NW 19:41:07 10° NE
SL-16 R/B 3.4 19:27:28 10° SW 19:32:55 47° WNW 19:38:26 10° N
SEDSat Delta rocket 4.4 19:28:01 10° W 19:34:11 57° S 19:40:48 10° ESE
Cosmos 1072 Rocket 4.4 19:28:31 10° S 19:34:35 76° E 19:40:42 10° N
Cosmos-2242 3.5 19:31:06 10° SSE 19:35:08 38° E 19:39:13 10° NNE
Cosmos 724 4.4 19:31:35 10° SSW 19:37:29 86° WNW 19:43:35 10° NNE
Cosmos 1766 Rocket 3.8 19:33:38 10° N 19:37:49 45° E 19:41:58 10° SSE
Cosmos 1758 3.5 19:35:35 10° SSE 19:39:31 49° E 19:43:30 10° NNE
CENTAUR R/B 2.9 19:36:21 10° S 19:41:48 40° ESE 19:47:50 10° NE
ISS -2.6 19:40:21 10° WSW 19:43:31 52° NW 19:46:43 10° NE
Cosmos 1452 Rocket 3.5 19:40:49 10° NNW 19:46:04 70° ENE 19:51:17 10° SSE
Cosmos 1766 4.3 19:42:46 10° SSW 19:46:38 52° W 19:50:33 10° N
Abrixas 4.4 19:46:53 10° W 19:49:27 25° NNW 19:52:03 10° NNE
NOAA 12 4.3 19:45:12 10° SSE 19:50:15 51° ENE 19:55:22 10° N
GPS 2-04 Rocket1 2.3 19:47:02 10° WSW 19:50:27 77° S 19:53:27 14° E
Meteor 1-21 Rocket 4.4 19:45:24 10° N 19:50:44 47° ENE 19:56:02 10° SSE
SAR-Lupe-1 4.2 19:47:19 10° SSE 19:50:46 49° ENE 19:54:12 10° N
Meteor 1-28 Rocket 3.1 19:51:07 10° NNE 19:54:50 64° E 19:58:30 10° S
Cosmos 1943 Rocket 4.0 19:59:23 10° NNE 20:01:32 12° NE 20:02:50 11° ENE
Cosmos 1420 Rocket 4.1 19:59:02 10° N 20:04:16 55° ENE 20:09:28 10° SSE
Cosmos 1346 3.0 20:04:39 10° N 20:07:36 55° E 20:10:31 10° SSE
Cosmos 1408 Rocket 3.8 20:03:22 10° N 20:07:41 72° W 20:11:57 10° S
Cosmos 1842 Rocket 3.8 20:04:10 10° SSE 20:08:14 42° E 20:12:21 10° NNE
Milstar 3 4.5 19:59:14 10° W 20:08:15 58° S 20:22:45 15° ESE
Helios 1A 3.5 20:05:20 10° SE 20:09:13 37° ENE 20:13:07 10° N
Cosmos 1500 Rocket 4.2 20:05:17 10° NNE 20:09:21 34° ENE 20:13:25 10° SE
Cosmos 2034 Rocket 4.1 20:03:45 10° S 20:10:01 83° W 20:16:23 10° N
Cosmos 1805 3.8 20:06:47 10° SSW 20:10:40 63° W 20:14:35 10° N
OAO 3 Rocket 3.4 20:06:12 10° W 20:10:52 64° SSW 20:14:10 19° ESE
Cosmos 1943 3.2 20:06:58 10° S 20:12:27 56° ESE 20:17:57 10° NNE
Cosmos 2369 Rocket 2.9 20:08:23 10° N 20:13:32 34° ENE 20:16:53 19° ESE
FREGAT/IRIS 2.5 20:10:47 10° SSE 20:13:52 82° E 20:16:58 10° N
Spot 2 Rocket 3.5 20:10:28 10° SSE 20:15:22 56° ENE 20:20:18 10° N
AVUM R/B 3.2 20:14:07 10° S 20:16:56 42° ESE 20:17:54 30° ENE
Cosmos 1048 Rocket 4.1 20:14:50 10° SSW 20:20:08 81° WNW 20:25:25 10° NNE
HJ-1C 3.2 20:20:25 10° SSE 20:23:45 69° ENE 20:27:07 10° N
Cosmos 1733 3.3 20:21:03 10° S 20:24:48 52° E 20:28:34 10° NNE
Cosmos 158 Rocket 3.7 20:20:45 10° S 20:25:34 65° ESE 20:30:24 10° NNE
Gbstr 26 Del rocket 3.7 20:23:52 10° WSW 20:28:05 58° NW 20:32:55 11° NE
Cosmos 1953 4.1 20:26:53 10° SW 20:30:31 34° W 20:34:10 10° NNW
Cosmos 1174 4.2 20:25:54 10° SSW 20:30:51 75° WNW 20:34:48 10° NNE
USA 215 3.2 20:26:42 10° NE 20:33:14 72° SE 20:39:44 10° SW
Cosmos 1674 2.6 20:29:52 10° N 20:33:45 73° E 20:36:55 15° SSE
Spot 1 4.3 20:29:12 10° S 20:33:54 80° WSW 20:38:21 10° NNW
TELKOM 3 4.3 20:31:54 10° NW 20:33:42 31° N 20:33:42 31° N
Helios 1B rocket 2.6 20:32:57 10° N 20:37:04 74° WNW 20:41:09 10° SSW
Cosmos 1470 2.7 20:33:18 10° S 20:37:10 82° W 20:41:04 10° N
CZ-4B DEB 4.1 20:39:43 27° NNE 20:39:43 27° NNE 20:41:32 10° N
Cosmos 1743 Rocket 3.8 20:34:56 10° NNW 20:39:20 69° W 20:43:40 10° S
Resurs 1-3 3.5 20:36:46 12° SSE 20:40:50 80° ENE 20:45:14 10° N
Resurs 01 Rocket 2.2 20:47:03 10° S 20:51:26 58° W 20:55:49 10° NNW
Meteosat 1 Rocket2 4.4 20:45:01 10° WSW 20:52:04 41° S 20:53:34 34° SE
Meteor 1-16 Rocket 3.9 20:52:08 10° S 20:57:23 70° E 21:02:41 10° NNE
ALOS 2.2 20:58:30 36° S 21:00:27 88° WSW 21:05:09 10° NNW
Meteor 2-1 Rocket 4.3 20:55:10 10° S 21:00:45 54° E 21:06:28 10° NNE
ASTEX 1 4.0 21:07:03 10° N 21:11:51 56° W 21:16:36 10° SSW
Cosmos 2151 3.3 21:07:44 10° N 21:11:13 59° NNW 21:11:13 59° NNW
Cosmos 2279 Rocket 3.8 21:09:24 35° SSE 21:12:03 66° E 21:18:12 10° NNE
Cosmos 1110 Rocket 3.9 21:09:12 10° NNW 21:14:19 72° NE 21:14:19 72° NE
GP-B 3.2 21:11:15 10° N 21:15:21 71° NW 21:15:21 71° NW
FENGYUN 3A 3.9 21:13:33 26° S 21:16:36 67° WSW 21:21:59 10° NNW
Meteor 1-11 4.1 21:11:49 10° N 21:17:37 78° E 21:17:58 75° ESE
CENTAUR R/B 4.0 21:27:02 10° WSW 21:32:29 33° NW 21:38:32 10° NNE
Cosmos 2251 Rocket 4.3 21:27:57 10° SW 21:33:01 49° WNW 21:38:06 10° N
Cosmos 494 Rocket 4.3 21:28:13 10° SSW 21:33:22 63° WNW 21:38:31 10° N
Cosmos 2026 Rocket 4.0 21:28:30 10° N 21:34:37 74° W 21:35:54 56° SSW
Cosmos 839 Rocket 4.4 21:31:28 10° NW 21:38:34 64° WSW 21:39:42 55° SSW
Cosmos 1655 Rocket 4.0 21:33:08 10° N 21:39:20 76° W 21:39:52 71° SW
Cosmos 1943 Rocket 2.9 21:40:26 10° NNW 21:44:23 47° NNW 21:44:23 47° NNW
Cosmos 2369 Rocket 3.8 21:52:35 10° NW 21:57:23 29° WSW 21:58:45 26° SW
